Карточка аэропорта UWKE

Внимание!
Информация на этой странице в стадии наполнения.
Если вы не увидели какой-то информации, или заметили неточность - пожалуйста сообщите нам!
Спасибо!
Команда RU-STAFF
Название аэропортаБегишево
Название аэропорта (англ.)Begishevo
Превышение643 ft. (196 m.)
Координаты55°33.882', 52°5.5500000000001'
Высота перехода700m
Эшелон переходаQFE>=742mm:FL040; QFE<742=>715:FL050; QFE<715:FL060
Коды ответчика1000
Зона ОрВДСамара РПИ (UWWW)
Данные METARUWKE 231800Z 04003MPS 9999 SCT050CB 16/10 Q1012 R03/120070 NOSIG RMK QFE742/0990
Проноз погоды (TAF)UWKE 231650Z 2318/2418 20003G10MPS 9999 BKN040 TEMPO 2318/2406 VRB14MPS 1000 TSRA BKN005 BKN016CB BECMG 2406/2408 31005G12MPS
NOTAMshow/hide NOTAM
AWOS   TABLE

Информация о ВПП

ВПП Длина ВПП (м.) Покрытие Курс ВПП Частота ILS
212502Асфальтобетон214109.9
032502Асфальтобетон34 

Диспетчерские позиции

Позывной Наименование органа УВД Частота
UWKE_TWRБегишево-Вышка121.200
UWKE_R_APPБегишево-Круг127.900



Спутниковое изображение